Estación de La capilla
Ultimos registro cada 15 minutos 21
| N° | Estación | Fecha / Hora | Temperatura | Humedad | Lluvia | Velocidad | Dirección | Radiación | Presion |
| 21 | La capilla | 05-05-2026 05:00 | 10,9 | 100 | 0 | 0 | 360 | 0 | 1087,8 |
| 20 | La capilla | 05-05-2026 04:45 | 11,1 | 100 | 0 | 0 | 360 | 0 | 1087,5 |
| 19 | La capilla | 05-05-2026 04:30 | 11,1 | 100 | 0 | 0 | 360 | 0 | 1087,3 |
| 18 | La capilla | 05-05-2026 04:15 | 11 | 100 | 0,2 | 0 | 360 | 0 | 1087,1 |
| 17 | La capilla | 05-05-2026 04:00 | 10,9 | 100 | 0 | 0 | 360 | 0 | 1087,2 |
| 16 | La capilla | 05-05-2026 03:45 | 10,9 | 100 | 0,2 | 0 | 360 | 0 | 1087,4 |
| 15 | La capilla | 05-05-2026 03:30 | 11 | 99 | 0,2 | 0 | 360 | 0 | 1087,3 |
| 14 | La capilla | 05-05-2026 03:15 | 11,1 | 100 | 0,2 | 0 | 360 | 0 | 1087,3 |
| 13 | La capilla | 05-05-2026 03:00 | 11,1 | 99 | 0,2 | 0 | 360 | 0 | 1087,6 |
| 12 | La capilla | 05-05-2026 02:45 | 11,1 | 99 | 0 | 0 | 360 | 0 | 1087,2 |
| 11 | La capilla | 05-05-2026 02:30 | 11,1 | 99 | 0 | 0 | 360 | 0 | 1087,2 |
| 10 | La capilla | 05-05-2026 02:15 | 11,1 | 99 | 0 | 0 | 360 | 0 | 1087,3 |
| 9 | La capilla | 05-05-2026 02:00 | 11,1 | 99 | 0 | 0 | 360 | 0 | 1087,6 |
| 8 | La capilla | 05-05-2026 01:45 | 11,1 | 99 | 0 | 0 | 360 | 0 | 1087,6 |
| 7 | La capilla | 05-05-2026 01:30 | 11,2 | 99 | 0 | 0 | 360 | 0 | 1087,6 |
| 6 | La capilla | 05-05-2026 01:15 | 11,2 | 100 | 0 | 0 | 360 | 0 | 1087,6 |
| 5 | La capilla | 05-05-2026 01:00 | 11,2 | 99 | 0 | 0 | 360 | 0 | 1087,8 |
| 4 | La capilla | 05-05-2026 00:45 | 11,2 | 99 | 0 | 0 | 360 | 0 | 1087,5 |
| 3 | La capilla | 05-05-2026 00:30 | 11,2 | 99 | 0 | 0 | 360 | 0 | 1087,7 |
| 2 | La capilla | 05-05-2026 00:15 | 11,3 | 99 | 0 | 0 | 360 | 0 | 1087,9 |
| 1 | La capilla | 05-05-2026 00:00 | 11,3 | 99 | 0 | 0 | 360 | 0 | 1087,7 |